Location: A�t �Alizem
(31.2076°N, 8.7872°W)
Time: 06:32:28
(UTC+00:00)

Cosmos 2366 rocket - Pass Details

Date: 27 November 2020
Orbit: 955 x 997 km, 82.9° (Epoch: 16 January)

Event Time Altitude Azimuth Distance (km) Brightness Sun altitude
Rises 18:21:46 0° 0° (N) 3,655 6.8 -10.6°
Reaches altitude 10° 18:24:22 10° 6° (N) 2,700 6.1 -11.1°
Maximum altitude 18:30:22 52° 82° (E) 1,172 4.1 -12.3°
Drops below altitude 10° 18:36:17 10° 158° (SSE) 2,673 6.2 -13.6°
Sets 18:38:50 0° 163° (SSE) 3,615 7.0 -14.1°
